Time,TemperatureF,DewpointF,PressureIn,WindDirection,WindDirectionDegrees,WindSpeedMPH,WindSpeedGustMPH,Humidity,HourlyPrecipIn,Conditions,Clouds,dailyrainin,SoftwareType,DateUTC
2013-04-29 10:39:00,56.3,55.2,30.09,NW,306,0.0,9.0,96,0.00,,,0.00,Wunderground v.1.15,2013-04-29 14:39:00,
2013-04-29 10:40:00,56.4,55.3,30.09,NW,306,0.0,9.0,96,0.00,,,0.00,Wunderground v.1.15,2013-04-29 14:40:00,
2013-04-29 10:41:00,56.4,55.3,30.09,NW,306,0.0,9.0,96,0.00,,,0.00,Wunderground v.1.15,2013-04-29 14:41:00,
2013-04-29 10:42:00,56.4,55.3,30.09,NW,306,0.0,9.0,96,0.00,,,0.00,Wunderground v.1.15,2013-04-29 14:42:00,
2013-04-29 10:46:00,56.5,55.4,30.09,NW,306,0.0,9.0,96,0.00,,,0.00,Wunderground v.1.15,2013-04-29 14:46:00,
2013-04-29 10:47:00,56.5,55.4,30.09,NW,306,0.0,9.0,96,0.00,,,0.00,Wunderground v.1.15,2013-04-29 14:47:00,
2013-04-29 10:48:00,56.6,55.5,30.09,NW,306,0.0,9.0,96,0.00,,,0.00,Wunderground v.1.15,2013-04-29 14:48:00,
2013-04-29 10:52:00,56.6,55.2,30.09,NW,306,0.0,9.0,95,0.00,,,0.00,Wunderground v.1.15,2013-04-29 14:52:00,
2013-04-29 10:53:00,56.6,55.2,30.09,NW,306,0.0,9.0,95,0.00,,,0.00,Wunderground v.1.15,2013-04-29 14:53:00,
2013-04-29 10:55:00,56.6,55.2,30.09,WSW,253,0.0,9.0,95,0.00,,,0.00,Wunderground v.1.15,2013-04-29 14:55:00,
2013-04-29 10:57:00,56.6,55.2,30.09,West,273,0.0,9.0,95,0.00,,,0.00,Wunderground v.1.15,2013-04-29 14:57:00,
2013-04-29 10:58:00,56.6,55.2,30.09,West,273,0.0,9.0,95,0.00,,,0.00,Wunderground v.1.15,2013-04-29 14:58:00,
2013-04-29 11:01:00,56.6,54.9,30.09,West,273,0.0,9.0,94,0.00,,,0.00,Wunderground v.1.15,2013-04-29 15:01:00,
2013-04-29 11:03:00,56.8,55.4,30.09,West,273,0.0,9.0,95,0.00,,,0.00,Wunderground v.1.15,2013-04-29 15:03:00,
2013-04-29 11:05:00,56.9,55.5,30.09,West,275,0.0,9.0,95,0.00,,,0.00,Wunderground v.1.15,2013-04-29 15:05:00,
2013-04-29 11:06:00,56.9,55.2,30.09,North,355,0.0,9.0,94,0.00,,,0.00,Wunderground v.1.15,2013-04-29 15:06:00,
2013-04-29 11:08:00,57.1,55.7,30.09,WNW,294,0.0,9.0,95,0.00,,,0.00,Wunderground v.1.15,2013-04-29 15:08:00,
2013-04-29 11:09:00,57.2,55.8,30.09,WNW,294,0.0,9.0,95,0.00,,,0.00,Wunderground v.1.15,2013-04-29 15:09:00,
2013-04-29 11:10:00,57.3,55.6,30.09,WNW,293,0.0,9.0,94,0.00,,,0.00,Wunderground v.1.15,2013-04-29 15:10:00,
2013-04-29 11:12:00,57.3,55.3,30.09,WSW,245,0.0,9.0,93,0.00,,,0.00,Wunderground v.1.15,2013-04-29 15:12:00,
2013-04-29 11:15:00,57.6,56.2,30.10,WNW,303,0.0,9.0,95,0.00,,,0.00,Wunderground v.1.15,2013-04-29 15:15:00,
2013-04-29 11:16:00,57.7,56.0,30.10,WNW,303,0.0,9.0,94,0.00,,,0.00,Wunderground v.1.15,2013-04-29 15:16:00,
2013-04-29 11:17:00,57.8,56.1,30.10,WNW,303,0.0,9.0,94,0.00,,,0.00,Wunderground v.1.15,2013-04-29 15:17:00,
2013-04-29 11:18:00,57.8,55.8,30.10,WSW,245,0.0,9.0,93,0.00,,,0.00,Wunderground v.1.15,2013-04-29 15:18:00,
2013-04-29 11:21:00,57.8,55.8,30.09,WSW,256,1.0,1.0,93,0.00,,,0.00,Wunderground v.1.15,2013-04-29 15:21:00,
2013-04-29 11:22:00,57.8,55.8,30.09,WNW,302,1.0,9.0,93,0.00,,,0.00,Wunderground v.1.15,2013-04-29 15:22:00,
2013-04-29 11:24:00,57.9,55.9,30.09,NW,311,1.0,9.0,93,0.00,,,0.00,Wunderground v.1.15,2013-04-29 15:24:00,
2013-04-29 11:25:00,58.0,56.0,30.09,WNW,291,1.0,9.0,93,0.00,,,0.00,Wunderground v.1.15,2013-04-29 15:25:00,
2013-04-29 11:26:00,57.9,55.6,30.09,WNW,284,1.0,9.0,92,0.00,,,0.00,Wunderground v.1.15,2013-04-29 15:26:00,
2013-04-29 11:28:00,57.9,55.3,30.09,West,274,1.0,9.0,91,0.00,,,0.00,Wunderground v.1.15,2013-04-29 15:28:00,
2013-04-29 11:30:00,57.8,54.9,30.10,WSW,250,1.0,9.0,90,0.00,,,0.00,Wunderground v.1.15,2013-04-29 15:30:00,
2013-04-29 11:34:00,57.7,55.1,30.10,West,267,2.0,9.0,91,0.00,,,0.00,Wunderground v.1.15,2013-04-29 15:34:00,
2013-04-29 11:35:00,57.8,55.5,30.10,WNW,293,2.0,9.0,92,0.00,,,0.00,Wunderground v.1.15,2013-04-29 15:35:00,
2013-04-29 11:40:00,58.0,55.4,30.10,WNW,299,1.0,9.0,91,0.00,,,0.00,Wunderground v.1.15,2013-04-29 15:40:00,
2013-04-29 11:41:00,58.0,55.4,30.10,NW,304,1.0,1.0,91,0.00,,,0.00,Wunderground v.1.15,2013-04-29 15:41:00,
2013-04-29 11:43:00,58.1,55.2,30.10,WNW,282,1.0,9.0,90,0.00,,,0.00,Wunderground v.1.15,2013-04-29 15:43:00,
2013-04-29 11:45:00,58.1,55.2,30.10,NNW,342,1.0,9.0,90,0.00,,,0.00,Wunderground v.1.15,2013-04-29 15:45:00,
2013-04-29 11:46:00,58.2,55.3,30.10,WNW,295,1.0,9.0,90,0.00,,,0.00,Wunderground v.1.15,2013-04-29 15:46:00,
2013-04-29 11:48:00,58.3,55.1,30.10,SW,228,1.0,9.0,89,0.00,,,0.00,Wunderground v.1.15,2013-04-29 15:48:00,
2013-04-29 11:51:00,58.6,55.7,30.10,NW,321,1.0,1.0,90,0.00,,,0.00,Wunderground v.1.15,2013-04-29 15:51:00,
2013-04-29 11:53:00,59.1,56.5,30.10,WSW,246,1.0,9.0,91,0.00,,,0.00,Wunderground v.1.15,2013-04-29 15:53:00,
2013-04-29 11:56:00,59.6,56.4,30.10,WNW,301,1.0,9.0,89,0.00,,,0.00,Wunderground v.1.15,2013-04-29 15:56:00,
2013-04-29 11:58:00,59.7,56.5,30.10,NW,321,0.0,9.0,89,0.00,,,0.00,Wunderground v.1.15,2013-04-29 15:58:00,
2013-04-29 12:01:00,59.7,56.5,30.10,WNW,295,0.0,9.0,89,0.00,,,0.00,Wunderground v.1.15,2013-04-29 16:01:00,
2013-04-29 12:03:00,59.7,55.8,30.10,NW,311,1.0,9.0,87,0.00,,,0.00,Wunderground v.1.15,2013-04-29 16:03:00,
2013-04-29 12:05:00,59.6,55.4,30.10,NW,307,1.0,9.0,86,0.00,,,0.00,Wunderground v.1.15,2013-04-29 16:05:00,
2013-04-29 12:07:00,59.4,55.2,30.10,NW,310,1.0,9.0,86,0.00,,,0.00,Wunderground v.1.15,2013-04-29 16:07:00,
2013-04-29 12:09:00,59.4,55.5,30.10,NW,313,1.0,9.0,87,0.00,,,0.00,Wunderground v.1.15,2013-04-29 16:09:00,
2013-04-29 12:10:00,59.4,55.2,30.10,WNW,302,1.0,9.0,86,0.00,,,0.00,Wunderground v.1.15,2013-04-29 16:10:00,
2013-04-29 12:15:00,59.7,56.5,30.10,WNW,283,1.0,9.0,89,0.00,,,0.00,Wunderground v.1.15,2013-04-29 16:15:00,
2013-04-29 12:19:00,60.4,56.2,30.10,WNW,290,1.0,9.0,86,0.00,,,0.00,Wunderground v.1.15,2013-04-29 16:19:00,
2013-04-29 12:20:00,60.5,56.3,30.10,WNW,290,1.0,9.0,86,0.00,,,0.00,Wunderground v.1.15,2013-04-29 16:20:00,
2013-04-29 12:23:00,60.6,56.1,30.10,NNW,332,1.0,9.0,85,0.00,,,0.00,Wunderground v.1.15,2013-04-29 16:23:00,
2013-04-29 12:25:00,60.6,55.4,30.10,NNE,12,1.0,9.0,83,0.00,,,0.00,Wunderground v.1.15,2013-04-29 16:25:00,
2013-04-29 12:26:00,60.6,55.7,30.10,NW,309,1.0,9.0,84,0.00,,,0.00,Wunderground v.1.15,2013-04-29 16:26:00,
2013-04-29 12:28:00,60.8,56.3,30.10,NNW,327,1.0,9.0,85,0.00,,,0.00,Wunderground v.1.15,2013-04-29 16:28:00,
2013-04-29 12:30:00,61.0,56.1,30.10,NW,316,1.0,9.0,84,0.00,,,0.00,Wunderground v.1.15,2013-04-29 16:30:00,
2013-04-29 12:31:00,61.0,55.8,30.10,NNW,327,1.0,1.0,83,0.00,,,0.00,Wunderground v.1.15,2013-04-29 16:31:00,
2013-04-29 12:32:00,61.0,55.8,30.10,WNW,292,1.0,3.0,83,0.00,,,0.00,Wunderground v.1.15,2013-04-29 16:32:00,
2013-04-29 12:35:00,61.1,55.2,30.10,WSW,247,2.0,9.0,81,0.00,,,0.00,Wunderground v.1.15,2013-04-29 16:35:00,
2013-04-29 12:36:00,61.1,55.2,30.10,West,267,2.0,9.0,81,0.00,,,0.00,Wunderground v.1.15,2013-04-29 16:36:00,
2013-04-29 12:38:00,61.2,55.7,30.10,WNW,295,2.0,9.0,82,0.00,,,0.00,Wunderground v.1.15,2013-04-29 16:38:00,
2013-04-29 12:41:00,61.2,55.0,30.09,WNW,289,3.0,3.0,80,0.00,,,0.00,Wunderground v.1.15,2013-04-29 16:41:00,
2013-04-29 12:44:00,61.2,55.7,30.09,West,277,3.0,9.0,82,0.00,,,0.00,Wunderground v.1.15,2013-04-29 16:44:00,
2013-04-29 12:45:00,61.1,55.2,30.09,SSW,208,2.0,9.0,81,0.00,,,0.00,Wunderground v.1.15,2013-04-29 16:45:00,
2013-04-29 12:46:00,61.0,55.5,30.09,NW,305,2.0,9.0,82,0.00,,,0.00,Wunderground v.1.15,2013-04-29 16:46:00,
2013-04-29 12:47:00,61.0,55.8,30.09,NW,310,2.0,9.0,83,0.00,,,0.00,Wunderground v.1.15,2013-04-29 16:47:00,
2013-04-29 12:49:00,61.0,55.8,30.09,West,275,1.0,9.0,83,0.00,,,0.00,Wunderground v.1.15,2013-04-29 16:49:00,
2013-04-29 12:50:00,61.0,55.1,30.09,West,275,1.0,9.0,81,0.00,,,0.00,Wunderground v.1.15,2013-04-29 16:50:00,
2013-04-29 12:51:00,61.0,55.1,30.09,West,277,1.0,1.0,81,0.00,,,0.00,Wunderground v.1.15,2013-04-29 16:51:00,
2013-04-29 12:54:00,60.8,54.9,30.09,WNW,296,1.0,9.0,81,0.00,,,0.00,Wunderground v.1.15,2013-04-29 16:54:00,
2013-04-29 12:57:00,60.7,55.2,30.09,NNW,327,0.0,9.0,82,0.00,,,0.00,Wunderground v.1.15,2013-04-29 16:57:00,
2013-04-29 12:58:00,60.6,55.1,30.09,NW,319,0.0,9.0,82,0.00,,,0.00,Wunderground v.1.15,2013-04-29 16:58:00,
2013-04-29 12:59:00,60.5,55.0,30.09,NW,318,1.0,9.0,82,0.00,,,0.00,Wunderground v.1.15,2013-04-29 16:59:00,
2013-04-29 13:02:00,60.2,55.3,30.09,NW,315,1.0,9.0,84,0.00,,,0.00,Wunderground v.1.15,2013-04-29 17:02:00,
2013-04-29 13:03:00,60.1,55.2,30.09,NW,316,1.0,9.0,84,0.00,,,0.00,Wunderground v.1.15,2013-04-29 17:03:00,
2013-04-29 13:05:00,60.0,55.5,30.09,NW,316,0.0,9.0,85,0.00,,,0.00,Wunderground v.1.15,2013-04-29 17:05:00,
2013-04-29 13:06:00,60.0,55.5,30.09,NW,316,0.0,9.0,85,0.00,,,0.00,Wunderground v.1.15,2013-04-29 17:06:00,
2013-04-29 13:07:00,60.0,55.5,30.09,NW,316,0.0,9.0,85,0.00,,,0.00,Wunderground v.1.15,2013-04-29 17:07:00,
2013-04-29 13:08:00,59.9,55.4,30.09,North,360,0.0,9.0,85,0.00,,,0.00,Wunderground v.1.15,2013-04-29 17:08:00,
2013-04-29 13:10:00,59.8,55.3,30.09,NNW,336,0.0,9.0,85,0.00,,,0.00,Wunderground v.1.15,2013-04-29 17:10:00,
2013-04-29 13:11:00,59.8,55.3,30.09,NNW,330,0.0,9.0,85,0.00,,,0.00,Wunderground v.1.15,2013-04-29 17:11:00,
2013-04-29 13:13:00,59.9,55.4,30.09,North,355,0.0,9.0,85,0.00,,,0.00,Wunderground v.1.15,2013-04-29 17:13:00,
2013-04-29 13:14:00,59.9,55.4,30.09,NW,319,0.0,9.0,85,0.00,,,0.00,Wunderground v.1.15,2013-04-29 17:14:00,
2013-04-29 13:18:00,59.9,55.4,30.09,NNW,332,0.0,9.0,85,0.00,,,0.00,Wunderground v.1.15,2013-04-29 17:18:00,
2013-04-29 13:19:00,60.0,55.8,30.09,NNW,332,0.0,9.0,86,0.00,,,0.00,Wunderground v.1.15,2013-04-29 17:19:00,
2013-04-29 13:21:00,60.1,56.2,30.09,NNW,334,0.0,9.0,87,0.00,,,0.00,Wunderground v.1.15,2013-04-29 17:21:00,
2013-04-29 13:22:00,60.1,55.9,30.09,NNW,334,0.0,9.0,86,0.00,,,0.00,Wunderground v.1.15,2013-04-29 17:22:00,
2013-04-29 13:25:00,60.3,55.1,30.09,NE,38,0.0,9.0,83,0.00,,,0.00,Wunderground v.1.15,2013-04-29 17:25:00,
2013-04-29 13:27:00,60.3,55.1,30.09,North,11,0.0,9.0,83,0.00,,,0.00,Wunderground v.1.15,2013-04-29 17:27:00,
2013-04-29 13:29:00,60.5,55.3,30.09,WNW,303,0.0,9.0,83,0.00,,,0.00,Wunderground v.1.15,2013-04-29 17:29:00,
2013-04-29 13:30:00,60.5,55.0,30.09,WNW,303,0.0,9.0,82,0.00,,,0.00,Wunderground v.1.15,2013-04-29 17:30:00,
2013-04-29 13:32:00,60.6,55.1,30.09,WNW,303,0.0,9.0,82,0.00,,,0.00,Wunderground v.1.15,2013-04-29 17:32:00,
2013-04-29 13:34:00,60.7,54.8,30.09,NW,304,0.0,9.0,81,0.00,,,0.00,Wunderground v.1.15,2013-04-29 17:34:00,
2013-04-29 13:35:00,60.8,54.9,30.09,NW,304,0.0,9.0,81,0.00,,,0.00,Wunderground v.1.15,2013-04-29 17:35:00,
2013-04-29 13:38:00,60.8,54.2,30.09,NNE,16,0.0,9.0,79,0.00,,,0.00,Wunderground v.1.15,2013-04-29 17:38:00,
2013-04-29 13:40:00,61.0,54.8,30.09,NNW,333,0.0,9.0,80,0.00,,,0.00,Wunderground v.1.15,2013-04-29 17:40:00,
2013-04-29 13:41:00,61.1,55.2,30.09,NNW,333,0.0,9.0,81,0.00,,,0.00,Wunderground v.1.15,2013-04-29 17:41:00,
2013-04-29 13:44:00,61.4,55.2,30.09,SW,222,0.0,9.0,80,0.00,,,0.00,Wunderground v.1.15,2013-04-29 17:44:00,
2013-04-29 13:46:00,61.6,55.4,30.09,NNW,337,0.0,9.0,80,0.00,,,0.00,Wunderground v.1.15,2013-04-29 17:46:00,
2013-04-29 13:50:00,62.0,55.4,30.09,NW,323,0.0,9.0,79,0.00,,,0.00,Wunderground v.1.15,2013-04-29 17:50:00,
2013-04-29 13:51:00,62.1,55.9,30.09,NNW,346,0.0,9.0,80,0.00,,,0.00,Wunderground v.1.15,2013-04-29 17:51:00,
2013-04-29 13:52:00,62.1,55.2,30.09,North,5,0.0,9.0,78,0.00,,,0.00,Wunderground v.1.15,2013-04-29 17:52:00,
2013-04-29 13:56:00,62.1,54.8,30.08,WNW,298,0.0,9.0,77,0.00,,,0.00,Wunderground v.1.15,2013-04-29 17:56:00,
2013-04-29 13:57:00,62.1,54.4,30.09,WNW,298,0.0,9.0,76,0.00,,,0.00,Wunderground v.1.15,2013-04-29 17:57:00,
2013-04-29 13:59:00,62.1,55.2,30.08,North,355,0.0,9.0,78,0.00,,,0.00,Wunderground v.1.15,2013-04-29 17:59:00,
2013-04-29 14:03:00,62.3,55.0,30.09,West,276,0.0,9.0,77,0.00,,,0.00,Wunderground v.1.15,2013-04-29 18:03:00,
2013-04-29 14:04:00,62.2,54.9,30.09,West,276,0.0,9.0,77,0.00,,,0.00,Wunderground v.1.15,2013-04-29 18:04:00,
2013-04-29 14:05:00,62.2,54.5,30.09,WNW,282,0.0,9.0,76,0.00,,,0.00,Wunderground v.1.15,2013-04-29 18:05:00,
2013-04-29 14:06:00,62.2,54.9,30.09,WNW,282,0.0,9.0,77,0.00,,,0.00,Wunderground v.1.15,2013-04-29 18:06:00,
2013-04-29 14:11:00,62.1,54.4,30.08,NW,316,0.0,9.0,76,0.00,,,0.00,Wunderground v.1.15,2013-04-29 18:11:00,
2013-04-29 14:13:00,62.1,54.8,30.08,NW,315,0.0,9.0,77,0.00,,,0.00,Wunderground v.1.15,2013-04-29 18:13:00,
2013-04-29 14:15:00,62.1,54.8,30.08,NW,315,0.0,9.0,77,0.00,,,0.00,Wunderground v.1.15,2013-04-29 18:15:00,
2013-04-29 14:17:00,62.2,55.6,30.08,NW,316,0.0,9.0,79,0.00,,,0.00,Wunderground v.1.15,2013-04-29 18:17:00,
2013-04-29 14:19:00,62.2,54.9,30.08,NW,316,0.0,9.0,77,0.00,,,0.00,Wunderground v.1.15,2013-04-29 18:19:00,
2013-04-29 14:22:00,62.1,54.8,30.08,West,278,0.0,9.0,77,0.00,,,0.00,Wunderground v.1.15,2013-04-29 18:22:00,
2013-04-29 14:23:00,62.1,55.2,30.08,West,278,0.0,9.0,78,0.00,,,0.00,Wunderground v.1.15,2013-04-29 18:23:00,
2013-04-29 14:24:00,62.1,55.5,30.08,West,278,0.0,9.0,79,0.00,,,0.00,Wunderground v.1.15,2013-04-29 18:24:00,
2013-04-29 14:26:00,62.1,55.5,30.08,NW,318,0.0,9.0,79,0.00,,,0.00,Wunderground v.1.15,2013-04-29 18:26:00,
2013-04-29 14:29:00,61.8,55.6,30.08,WNW,299,0.0,9.0,80,0.00,,,0.00,Wunderground v.1.15,2013-04-29 18:29:00,
2013-04-29 14:31:00,61.6,55.7,30.08,WNW,299,0.0,9.0,81,0.00,,,0.00,Wunderground v.1.15,2013-04-29 18:31:00,
2013-04-29 14:32:00,61.5,55.6,30.08,WNW,299,0.0,9.0,81,0.00,,,0.00,Wunderground v.1.15,2013-04-29 18:32:00,
2013-04-29 14:35:00,61.2,55.7,30.08,NNW,335,0.0,9.0,82,0.00,,,0.00,Wunderground v.1.15,2013-04-29 18:35:00,
2013-04-29 14:36:00,61.1,55.6,30.08,NNW,335,1.0,9.0,82,0.00,,,0.00,Wunderground v.1.15,2013-04-29 18:36:00,
2013-04-29 14:39:00,60.8,55.6,30.08,NW,317,0.0,9.0,83,0.00,,,0.00,Wunderground v.1.15,2013-04-29 18:39:00,
2013-04-29 14:41:00,60.7,55.5,30.08,NW,317,0.0,9.0,83,0.00,,,0.00,Wunderground v.1.15,2013-04-29 18:41:00,
2013-04-29 14:42:00,60.7,55.5,30.08,NW,317,0.0,9.0,83,0.00,,,0.00,Wunderground v.1.15,2013-04-29 18:42:00,
2013-04-29 14:44:00,60.7,55.8,30.08,NW,317,0.0,9.0,84,0.00,,,0.00,Wunderground v.1.15,2013-04-29 18:44:00,
2013-04-29 14:46:00,60.6,55.7,30.08,NW,317,0.0,9.0,84,0.00,,,0.00,Wunderground v.1.15,2013-04-29 18:46:00,
2013-04-29 14:47:00,60.5,55.3,30.08,NW,317,0.0,9.0,83,0.00,,,0.00,Wunderground v.1.15,2013-04-29 18:47:00,
2013-04-29 14:48:00,60.5,55.3,30.08,WNW,293,0.0,9.0,83,0.00,,,0.00,Wunderground v.1.15,2013-04-29 18:48:00,
2013-04-29 14:52:00,60.4,55.5,30.08,NNW,348,0.0,9.0,84,0.00,,,0.00,Wunderground v.1.15,2013-04-29 18:52:00,
2013-04-29 14:53:00,60.3,55.4,30.08,NW,324,0.0,9.0,84,0.00,,,0.00,Wunderground v.1.15,2013-04-29 18:53:00,
2013-04-29 14:54:00,60.3,55.4,30.08,NW,323,0.0,9.0,84,0.00,,,0.00,Wunderground v.1.15,2013-04-29 18:54:00,
2013-04-29 14:57:00,60.4,55.9,30.08,NNW,333,0.0,9.0,85,0.00,,,0.00,Wunderground v.1.15,2013-04-29 18:57:00,
2013-04-29 14:58:00,60.3,55.8,30.08,NNW,342,0.0,9.0,85,0.00,,,0.00,Wunderground v.1.15,2013-04-29 18:58:00,
2013-04-29 15:01:00,60.4,56.2,30.08,NNW,342,0.0,9.0,86,0.00,,,0.00,Wunderground v.1.15,2013-04-29 19:01:00,
2013-04-29 15:04:00,60.4,55.9,30.08,NNW,328,0.0,9.0,85,0.00,,,0.00,Wunderground v.1.15,2013-04-29 19:04:00,
2013-04-29 15:05:00,60.4,55.5,30.08,NNW,328,0.0,9.0,84,0.00,,,0.00,Wunderground v.1.15,2013-04-29 19:05:00,
2013-04-29 15:09:00,60.4,55.5,30.07,NNW,342,0.0,9.0,84,0.00,,,0.00,Wunderground v.1.15,2013-04-29 19:09:00,
2013-04-29 15:10:00,60.4,55.2,30.07,NNW,327,0.0,9.0,83,0.00,,,0.00,Wunderground v.1.15,2013-04-29 19:10:00,
2013-04-29 15:11:00,60.4,55.5,30.07,NNW,327,0.0,9.0,84,0.00,,,0.00,Wunderground v.1.15,2013-04-29 19:11:00,
2013-04-29 15:12:00,60.4,55.5,30.08,NNW,327,0.0,9.0,84,0.00,,,0.00,Wunderground v.1.15,2013-04-29 19:12:00,
2013-04-29 15:14:00,60.5,56.0,30.07,NNW,327,0.0,9.0,85,0.00,,,0.00,Wunderground v.1.15,2013-04-29 19:14:00,
2013-04-29 15:16:00,60.6,56.1,30.07,NW,307,0.0,9.0,85,0.00,,,0.00,Wunderground v.1.15,2013-04-29 19:16:00,
2013-04-29 15:17:00,60.5,56.0,30.07,NW,324,0.0,9.0,85,0.00,,,0.00,Wunderground v.1.15,2013-04-29 19:17:00,
2013-04-29 15:19:00,60.6,55.7,30.07,NW,321,0.0,9.0,84,0.00,,,0.00,Wunderground v.1.15,2013-04-29 19:19:00,
2013-04-29 15:20:00,60.6,55.4,30.07,North,360,0.0,9.0,83,0.00,,,0.00,Wunderground v.1.15,2013-04-29 19:20:00,
2013-04-29 15:21:00,60.7,55.5,30.07,North,360,0.0,9.0,83,0.00,,,0.00,Wunderground v.1.15,2013-04-29 19:21:00,
2013-04-29 15:23:00,60.7,55.5,30.07,North,350,0.0,9.0,83,0.00,,,0.00,Wunderground v.1.15,2013-04-29 19:23:00,
2013-04-29 15:25:00,60.7,55.8,30.07,North,350,0.0,9.0,84,0.00,,,0.00,Wunderground v.1.15,2013-04-29 19:25:00,
2013-04-29 15:26:00,60.8,55.9,30.07,North,350,0.0,9.0,84,0.00,,,0.00,Wunderground v.1.15,2013-04-29 19:26:00,
2013-04-29 15:30:00,61.1,55.6,30.07,NNW,331,0.0,9.0,82,0.00,,,0.00,Wunderground v.1.15,2013-04-29 19:30:00,
2013-04-29 15:31:00,61.2,55.7,30.07,NNW,327,0.0,9.0,82,0.00,,,0.00,Wunderground v.1.15,2013-04-29 19:31:00,
2013-04-29 15:35:00,61.3,55.4,30.07,West,277,0.0,9.0,81,0.00,,,0.00,Wunderground v.1.15,2013-04-29 19:35:00,
2013-04-29 15:36:00,61.4,55.5,30.07,West,277,0.0,9.0,81,0.00,,,0.00,Wunderground v.1.15,2013-04-29 19:36:00,
2013-04-29 15:37:00,61.4,55.9,30.07,North,360,0.0,9.0,82,0.00,,,0.00,Wunderground v.1.15,2013-04-29 19:37:00,
2013-04-29 15:39:00,61.5,56.3,30.07,North,360,0.0,9.0,83,0.00,,,0.00,Wunderground v.1.15,2013-04-29 19:39:00,
2013-04-29 15:42:00,61.6,55.7,30.07,NW,315,0.0,9.0,81,0.00,,,0.00,Wunderground v.1.15,2013-04-29 19:42:00,
2013-04-29 15:44:00,61.7,55.1,30.07,NW,313,0.0,9.0,79,0.00,,,0.00,Wunderground v.1.15,2013-04-29 19:44:00,
2013-04-29 15:45:00,61.7,55.1,30.07,West,266,0.0,9.0,79,0.00,,,0.00,Wunderground v.1.15,2013-04-29 19:45:00,
2013-04-29 15:49:00,61.5,54.6,30.07,NW,306,0.0,9.0,78,0.00,,,0.00,Wunderground v.1.15,2013-04-29 19:49:00,
2013-04-29 15:51:00,61.6,55.0,30.07,NW,306,0.0,9.0,79,0.00,,,0.00,Wunderground v.1.15,2013-04-29 19:51:00,
2013-04-29 15:53:00,61.6,55.0,30.07,NW,306,0.0,9.0,79,0.00,,,0.00,Wunderground v.1.15,2013-04-29 19:53:00,
2013-04-29 15:54:00,61.7,55.1,30.07,NW,306,0.0,9.0,79,0.00,,,0.00,Wunderground v.1.15,2013-04-29 19:54:00,
2013-04-29 15:56:00,61.8,55.2,30.07,NW,309,0.0,9.0,79,0.00,,,0.00,Wunderground v.1.15,2013-04-29 19:56:00,
2013-04-29 15:57:00,61.8,54.9,30.07,NW,313,0.0,9.0,78,0.00,,,0.00,Wunderground v.1.15,2013-04-29 19:57:00,
2013-04-29 15:59:00,61.8,54.9,30.07,NW,307,0.0,9.0,78,0.00,,,0.00,Wunderground v.1.15,2013-04-29 19:59:00,
2013-04-29 16:02:00,61.9,54.6,30.07,WNW,284,0.0,9.0,77,0.00,,,0.00,Wunderground v.1.15,2013-04-29 20:02:00,
2013-04-29 16:03:00,61.9,54.6,30.07,WNW,286,0.0,9.0,77,0.00,,,0.00,Wunderground v.1.15,2013-04-29 20:03:00,
2013-04-29 16:06:00,61.8,54.9,30.07,WNW,286,0.0,9.0,78,0.00,,,0.00,Wunderground v.1.15,2013-04-29 20:06:00,
2013-04-29 16:08:00,61.8,54.9,30.07,WNW,286,0.0,9.0,78,0.00,,,0.00,Wunderground v.1.15,2013-04-29 20:08:00,
2013-04-29 16:09:00,61.9,55.0,30.07,WNW,286,0.0,9.0,78,0.00,,,0.00,Wunderground v.1.15,2013-04-29 20:09:00,
2013-04-29 16:10:00,62.0,55.8,30.07,WNW,286,0.0,9.0,80,0.00,,,0.00,Wunderground v.1.15,2013-04-29 20:10:00,
2013-04-29 16:12:00,62.1,54.8,30.07,NW,326,0.0,9.0,77,0.00,,,0.00,Wunderground v.1.15,2013-04-29 20:12:00,
2013-04-29 16:13:00,62.1,55.2,30.07,NW,325,0.0,9.0,78,0.00,,,0.00,Wunderground v.1.15,2013-04-29 20:13:00,
2013-04-29 16:15:00,62.2,54.9,30.07,NW,325,0.0,9.0,77,0.00,,,0.00,Wunderground v.1.15,2013-04-29 20:15:00,
2013-04-29 16:18:00,62.3,55.0,30.06,NNW,333,0.0,9.0,77,0.00,,,0.00,Wunderground v.1.15,2013-04-29 20:18:00,
2013-04-29 16:19:00,62.4,55.1,30.06,NNW,333,0.0,9.0,77,0.00,,,0.00,Wunderground v.1.15,2013-04-29 20:19:00,
2013-04-29 16:20:00,62.4,55.4,30.06,NNW,333,0.0,9.0,78,0.00,,,0.00,Wunderground v.1.15,2013-04-29 20:20:00,
2013-04-29 16:23:00,62.6,54.9,30.06,NW,319,0.0,9.0,76,0.00,,,0.00,Wunderground v.1.15,2013-04-29 20:23:00,
2013-04-29 16:24:00,62.6,54.9,30.06,NW,319,0.0,9.0,76,0.00,,,0.00,Wunderground v.1.15,2013-04-29 20:24:00,
2013-04-29 16:25:00,62.6,54.9,30.06,NW,319,0.0,9.0,76,0.00,,,0.00,Wunderground v.1.15,2013-04-29 20:25:00,
2013-04-29 16:27:00,62.6,54.9,30.06,NW,319,0.0,9.0,76,0.00,,,0.00,Wunderground v.1.15,2013-04-29 20:27:00,
2013-04-29 16:31:00,62.8,55.1,30.06,NW,320,0.0,9.0,76,0.00,,,0.00,Wunderground v.1.15,2013-04-29 20:31:00,
2013-04-29 16:32:00,62.8,55.1,30.06,NW,320,0.0,9.0,76,0.00,,,0.00,Wunderground v.1.15,2013-04-29 20:32:00,
2013-04-29 16:33:00,62.8,54.8,30.06,NW,319,0.0,9.0,75,0.00,,,0.00,Wunderground v.1.15,2013-04-29 20:33:00,
2013-04-29 16:34:00,62.8,54.8,30.06,NW,319,0.0,9.0,75,0.00,,,0.00,Wunderground v.1.15,2013-04-29 20:34:00,
2013-04-29 16:38:00,62.7,55.0,30.06,NW,319,0.0,9.0,76,0.00,,,0.00,Wunderground v.1.15,2013-04-29 20:38:00,
2013-04-29 16:39:00,62.7,55.4,30.06,NW,319,0.0,9.0,77,0.00,,,0.00,Wunderground v.1.15,2013-04-29 20:39:00,
2013-04-29 16:41:00,62.7,54.7,30.06,NW,319,0.0,9.0,75,0.00,,,0.00,Wunderground v.1.15,2013-04-29 20:41:00,
2013-04-29 16:43:00,62.8,55.5,30.06,NW,319,0.0,9.0,77,0.00,,,0.00,Wunderground v.1.15,2013-04-29 20:43:00,
2013-04-29 16:45:00,62.7,54.7,30.06,NNW,345,0.0,9.0,75,0.00,,,0.00,Wunderground v.1.15,2013-04-29 20:45:00,
2013-04-29 16:46:00,62.7,54.7,30.06,NNW,345,0.0,9.0,75,0.00,,,0.00,Wunderground v.1.15,2013-04-29 20:46:00,
2013-04-29 16:47:00,62.7,55.0,30.06,NW,321,0.0,9.0,76,0.00,,,0.00,Wunderground v.1.15,2013-04-29 20:47:00,
2013-04-29 16:48:00,62.7,54.7,30.06,North,9,0.0,9.0,75,0.00,,,0.00,Wunderground v.1.15,2013-04-29 20:48:00,
2013-04-29 16:51:00,62.7,54.7,30.06,NNW,330,0.0,9.0,75,0.00,,,0.00,Wunderground v.1.15,2013-04-29 20:51:00,
2013-04-29 16:52:00,62.7,54.7,30.06,NNW,339,0.0,9.0,75,0.00,,,0.00,Wunderground v.1.15,2013-04-29 20:52:00,
2013-04-29 16:54:00,62.8,54.8,30.06,NNW,339,0.0,9.0,75,0.00,,,0.00,Wunderground v.1.15,2013-04-29 20:54:00,
2013-04-29 16:57:00,62.9,54.9,30.06,WNW,297,0.0,9.0,75,0.00,,,0.00,Wunderground v.1.15,2013-04-29 20:57:00,
2013-04-29 16:58:00,62.8,54.8,30.06,WNW,296,0.0,9.0,75,0.00,,,0.00,Wunderground v.1.15,2013-04-29 20:58:00,
2013-04-29 16:59:00,62.8,55.1,30.06,WNW,283,0.0,9.0,76,0.00,,,0.00,Wunderground v.1.15,2013-04-29 20:59:00,
2013-04-29 17:03:00,62.8,55.5,30.06,WNW,286,0.0,9.0,77,0.00,,,0.00,Wunderground v.1.15,2013-04-29 21:03:00,
2013-04-29 17:05:00,62.8,55.1,30.06,West,275,0.0,9.0,76,0.00,,,0.00,Wunderground v.1.15,2013-04-29 21:05:00,
2013-04-29 17:07:00,62.8,55.1,30.06,WSW,243,1.0,9.0,76,0.00,,,0.00,Wunderground v.1.15,2013-04-29 21:07:00,
2013-04-29 17:08:00,62.7,55.0,30.06,WSW,243,1.0,9.0,76,0.00,,,0.00,Wunderground v.1.15,2013-04-29 21:08:00,
2013-04-29 17:12:00,62.9,55.6,30.06,NNW,342,0.0,9.0,77,0.00,,,0.00,Wunderground v.1.15,2013-04-29 21:12:00,
2013-04-29 17:13:00,62.9,56.3,30.06,West,259,0.0,9.0,79,0.00,,,0.00,Wunderground v.1.15,2013-04-29 21:13:00,
2013-04-29 17:14:00,62.9,55.6,30.06,West,259,0.0,9.0,77,0.00,,,0.00,Wunderground v.1.15,2013-04-29 21:14:00,
2013-04-29 17:15:00,63.0,55.3,30.06,West,259,0.0,9.0,76,0.00,,,0.00,Wunderground v.1.15,2013-04-29 21:15:00,
2013-04-29 17:18:00,63.1,55.8,30.06,West,270,0.0,9.0,77,0.00,,,0.00,Wunderground v.1.15,2013-04-29 21:18:00,
2013-04-29 17:20:00,63.2,55.9,30.06,WNW,288,0.0,9.0,77,0.00,,,0.00,Wunderground v.1.15,2013-04-29 21:20:00,
2013-04-29 17:21:00,63.2,56.2,30.06,WNW,288,0.0,9.0,78,0.00,,,0.00,Wunderground v.1.15,2013-04-29 21:21:00,
2013-04-29 17:23:00,63.1,55.8,30.06,WNW,296,0.0,9.0,77,0.00,,,0.00,Wunderground v.1.15,2013-04-29 21:23:00,
2013-04-29 17:24:00,63.0,55.7,30.06,WNW,292,0.0,9.0,77,0.00,,,0.00,Wunderground v.1.15,2013-04-29 21:24:00,
2013-04-29 17:25:00,63.0,55.7,30.06,West,271,1.0,9.0,77,0.00,,,0.00,Wunderground v.1.15,2013-04-29 21:25:00,
2013-04-29 17:26:00,62.9,55.6,30.06,WSW,249,1.0,9.0,77,0.00,,,0.00,Wunderground v.1.15,2013-04-29 21:26:00,
2013-04-29 17:29:00,62.9,55.6,30.06,WNW,284,1.0,9.0,77,0.00,,,0.00,Wunderground v.1.15,2013-04-29 21:29:00,
2013-04-29 17:30:00,62.8,55.8,30.06,SW,232,1.0,9.0,78,0.00,,,0.00,Wunderground v.1.15,2013-04-29 21:30:00,
2013-04-29 17:33:00,62.8,55.8,30.06,SW,232,1.0,9.0,78,0.00,,,0.00,Wunderground v.1.15,2013-04-29 21:33:00,
2013-04-29 17:34:00,62.7,56.1,30.06,SSW,209,1.0,9.0,79,0.00,,,0.00,Wunderground v.1.15,2013-04-29 21:34:00,
2013-04-29 17:35:00,62.7,55.7,30.06,WSW,257,1.0,9.0,78,0.00,,,0.00,Wunderground v.1.15,2013-04-29 21:35:00,
2013-04-29 17:37:00,62.6,55.6,30.06,West,265,1.0,9.0,78,0.00,,,0.00,Wunderground v.1.15,2013-04-29 21:37:00,
2013-04-29 17:39:00,62.5,55.2,30.06,SSW,209,1.0,9.0,77,0.00,,,0.00,Wunderground v.1.15,2013-04-29 21:39:00,
2013-04-29 17:42:00,62.5,55.9,30.06,South,187,2.0,2.0,79,0.00,,,0.00,Wunderground v.1.15,2013-04-29 21:42:00,
2013-04-29 17:43:00,62.5,55.5,30.06,SSW,197,1.0,9.0,78,0.00,,,0.00,Wunderground v.1.15,2013-04-29 21:43:00,
2013-04-29 17:47:00,62.5,55.5,30.06,SSW,200,1.0,9.0,78,0.00,,,0.00,Wunderground v.1.15,2013-04-29 21:47:00,
2013-04-29 17:49:00,62.4,55.4,30.06,SW,217,1.0,9.0,78,0.00,,,0.00,Wunderground v.1.15,2013-04-29 21:49:00,
2013-04-29 17:51:00,62.4,55.4,30.06,SW,225,1.0,1.0,78,0.00,,,0.00,Wunderground v.1.15,2013-04-29 21:51:00,
2013-04-29 17:52:00,62.4,55.8,30.06,SW,218,1.0,9.0,79,0.00,,,0.00,Wunderground v.1.15,2013-04-29 21:52:00,
2013-04-29 17:54:00,62.4,55.8,30.05,SSW,205,1.0,9.0,79,0.00,,,0.00,Wunderground v.1.15,2013-04-29 21:54:00,
2013-04-29 17:56:00,62.4,56.1,30.05,SSW,205,0.0,9.0,80,0.00,,,0.00,Wunderground v.1.15,2013-04-29 21:56:00,
2013-04-29 17:57:00,62.5,56.2,30.05,WSW,245,0.0,9.0,80,0.00,,,0.00,Wunderground v.1.15,2013-04-29 21:57:00,
2013-04-29 18:01:00,62.5,55.5,30.05,SSW,205,0.0,9.0,78,0.00,,,0.00,Wunderground v.1.15,2013-04-29 22:01:00,
2013-04-29 18:02:00,62.5,55.5,30.05,SSW,203,0.0,9.0,78,0.00,,,0.00,Wunderground v.1.15,2013-04-29 22:02:00,
2013-04-29 18:03:00,62.5,55.9,30.05,SSW,202,0.0,9.0,79,0.00,,,0.00,Wunderground v.1.15,2013-04-29 22:03:00,
2013-04-29 18:08:00,62.5,55.5,30.05,WSW,244,0.0,9.0,78,0.00,,,0.00,Wunderground v.1.15,2013-04-29 22:08:00,
2013-04-29 18:09:00,62.5,55.5,30.05,WSW,244,0.0,9.0,78,0.00,,,0.00,Wunderground v.1.15,2013-04-29 22:09:00,
2013-04-29 18:10:00,62.5,55.9,30.05,WSW,245,0.0,9.0,79,0.00,,,0.00,Wunderground v.1.15,2013-04-29 22:10:00,
2013-04-29 18:13:00,62.5,55.9,30.05,SW,233,0.0,9.0,79,0.00,,,0.00,Wunderground v.1.15,2013-04-29 22:13:00,
2013-04-29 18:15:00,62.6,55.6,30.05,NW,309,0.0,9.0,78,0.00,,,0.00,Wunderground v.1.15,2013-04-29 22:15:00,
2013-04-29 18:16:00,62.7,56.4,30.05,WSW,250,0.0,9.0,80,0.00,,,0.00,Wunderground v.1.15,2013-04-29 22:16:00,
2013-04-29 18:18:00,62.6,55.6,30.05,WSW,249,0.0,9.0,78,0.00,,,0.00,Wunderground v.1.15,2013-04-29 22:18:00,
2013-04-29 18:20:00,62.6,55.6,30.05,WSW,249,0.0,9.0,78,0.00,,,0.00,Wunderground v.1.15,2013-04-29 22:20:00,
2013-04-29 18:24:00,62.5,55.9,30.05,WSW,248,0.0,9.0,79,0.00,,,0.00,Wunderground v.1.15,2013-04-29 22:24:00,
2013-04-29 18:25:00,62.5,55.9,30.05,WSW,248,0.0,9.0,79,0.00,,,0.00,Wunderground v.1.15,2013-04-29 22:25:00,
2013-04-29 18:28:00,62.5,55.9,30.05,WSW,248,0.0,9.0,79,0.00,,,0.00,Wunderground v.1.15,2013-04-29 22:28:00,
2013-04-29 18:29:00,62.5,55.5,30.05,WSW,248,0.0,9.0,78,0.00,,,0.00,Wunderground v.1.15,2013-04-29 22:29:00,
2013-04-29 18:30:00,62.5,55.5,30.05,WSW,248,0.0,9.0,78,0.00,,,0.00,Wunderground v.1.15,2013-04-29 22:30:00,
2013-04-29 18:32:00,62.6,55.6,30.05,WSW,248,0.0,9.0,78,0.00,,,0.00,Wunderground v.1.15,2013-04-29 22:32:00,
2013-04-29 18:34:00,62.6,56.0,30.05,WSW,248,0.0,9.0,79,0.00,,,0.00,Wunderground v.1.15,2013-04-29 22:34:00,
2013-04-29 18:35:00,62.7,56.1,30.05,WSW,248,0.0,9.0,79,0.00,,,0.00,Wunderground v.1.15,2013-04-29 22:35:00,
2013-04-29 18:36:00,62.6,56.0,30.05,WSW,248,0.0,9.0,79,0.00,,,0.00,Wunderground v.1.15,2013-04-29 22:36:00,
2013-04-29 18:38:00,62.7,56.4,30.05,WSW,246,0.0,9.0,80,0.00,,,0.00,Wunderground v.1.15,2013-04-29 22:38:00,
2013-04-29 18:41:00,62.6,55.6,30.05,WSW,246,0.0,9.0,78,0.00,,,0.00,Wunderground v.1.15,2013-04-29 22:41:00,
2013-04-29 18:42:00,62.6,56.0,30.05,WSW,246,0.0,9.0,79,0.00,,,0.00,Wunderground v.1.15,2013-04-29 22:42:00,
2013-04-29 18:43:00,62.6,55.6,30.05,WSW,246,0.0,9.0,78,0.00,,,0.00,Wunderground v.1.15,2013-04-29 22:43:00,
2013-04-29 18:45:00,62.6,55.3,30.04,WSW,246,0.0,9.0,77,0.00,,,0.00,Wunderground v.1.15,2013-04-29 22:45:00,
2013-04-29 18:46:00,62.7,55.7,30.04,WSW,246,0.0,9.0,78,0.00,,,0.00,Wunderground v.1.15,2013-04-29 22:46:00,
2013-04-29 18:48:00,62.6,55.6,30.04,WSW,246,0.0,9.0,78,0.00,,,0.00,Wunderground v.1.15,2013-04-29 22:48:00,
2013-04-29 18:51:00,62.6,55.3,30.04,WSW,246,0.0,9.0,77,0.00,,,0.00,Wunderground v.1.15,2013-04-29 22:51:00,
2013-04-29 18:53:00,62.6,55.3,30.04,WSW,246,0.0,9.0,77,0.00,,,0.00,Wunderground v.1.15,2013-04-29 22:53:00,
2013-04-29 18:54:00,62.6,55.3,30.04,WSW,246,0.0,9.0,77,0.00,,,0.00,Wunderground v.1.15,2013-04-29 22:54:00,
2013-04-29 18:57:00,62.6,55.6,30.04,WSW,246,0.0,9.0,78,0.00,,,0.00,Wunderground v.1.15,2013-04-29 22:57:00,
2013-04-29 19:01:00,62.7,55.7,30.04,WSW,246,0.0,9.0,78,0.00,,,0.00,Wunderground v.1.15,2013-04-29 23:01:00,
2013-04-29 19:02:00,62.8,55.8,30.04,WSW,246,0.0,9.0,78,0.00,,,0.00,Wunderground v.1.15,2013-04-29 23:02:00,
2013-04-29 19:04:00,63.0,56.4,30.04,WSW,246,0.0,9.0,79,0.00,,,0.00,Wunderground v.1.15,2013-04-29 23:04:00,
2013-04-29 19:05:00,63.0,56.7,30.04,WSW,246,0.0,9.0,80,0.00,,,0.00,Wunderground v.1.15,2013-04-29 23:05:00,
2013-04-29 19:06:00,63.1,56.8,30.04,WSW,246,0.0,9.0,80,0.00,,,0.00,Wunderground v.1.15,2013-04-29 23:06:00,
2013-04-29 19:07:00,63.2,56.6,30.04,WSW,246,0.0,9.0,79,0.00,,,0.00,Wunderground v.1.15,2013-04-29 23:07:00,
2013-04-29 19:08:00,63.2,56.2,30.04,WSW,246,0.0,9.0,78,0.00,,,0.00,Wunderground v.1.15,2013-04-29 23:08:00,
2013-04-29 19:11:00,63.2,56.6,30.04,WSW,246,0.0,9.0,79,0.00,,,0.00,Wunderground v.1.15,2013-04-29 23:11:00,
2013-04-29 19:12:00,63.3,57.0,30.04,WSW,246,0.0,9.0,80,0.00,,,0.00,Wunderground v.1.15,2013-04-29 23:12:00,
2013-04-29 19:13:00,63.4,56.8,30.04,WSW,246,0.0,9.0,79,0.00,,,0.00,Wunderground v.1.15,2013-04-29 23:13:00,
2013-04-29 19:15:00,63.4,57.1,30.04,WSW,246,0.0,9.0,80,0.00,,,0.00,Wunderground v.1.15,2013-04-29 23:15:00,
2013-04-29 19:18:00,63.6,57.3,30.04,WSW,246,0.0,9.0,80,0.00,,,0.00,Wunderground v.1.15,2013-04-29 23:18:00,
2013-04-29 19:19:00,63.6,57.0,30.04,WSW,246,0.0,9.0,79,0.00,,,0.00,Wunderground v.1.15,2013-04-29 23:19:00,
2013-04-29 19:20:00,63.6,57.0,30.04,WSW,246,0.0,9.0,79,0.00,,,0.00,Wunderground v.1.15,2013-04-29 23:20:00,
2013-04-29 19:21:00,63.7,57.1,30.04,WSW,246,0.0,9.0,79,0.00,,,0.00,Wunderground v.1.15,2013-04-29 23:21:00,
2013-04-29 19:24:00,63.9,57.6,30.04,WSW,246,0.0,9.0,80,0.00,,,0.00,Wunderground v.1.15,2013-04-29 23:24:00,
2013-04-29 19:25:00,64.0,57.4,30.04,WSW,246,0.0,9.0,79,0.00,,,0.00,Wunderground v.1.15,2013-04-29 23:25:00,
2013-04-29 19:26:00,64.1,57.5,30.04,WSW,246,0.0,9.0,79,0.00,,,0.00,Wunderground v.1.15,2013-04-29 23:26:00,
2013-04-29 19:27:00,64.2,57.5,30.04,WSW,246,0.0,9.0,79,0.00,,,0.00,Wunderground v.1.15,2013-04-29 23:27:00,
2013-04-29 19:29:00,64.3,57.3,30.04,WSW,246,0.0,9.0,78,0.00,,,0.00,Wunderground v.1.15,2013-04-29 23:29:00,
2013-04-29 19:32:00,64.5,57.1,30.04,WSW,246,0.0,9.0,77,0.00,,,0.00,Wunderground v.1.15,2013-04-29 23:32:00,
2013-04-29 19:34:00,64.5,57.1,30.04,WSW,246,0.0,9.0,77,0.00,,,0.00,Wunderground v.1.15,2013-04-29 23:34:00,
2013-04-29 19:36:00,64.4,57.0,30.04,WSW,246,0.0,9.0,77,0.00,,,0.00,Wunderground v.1.15,2013-04-29 23:36:00,
2013-04-29 19:37:00,64.4,57.0,30.04,WSW,246,0.0,9.0,77,0.00,,,0.00,Wunderground v.1.15,2013-04-29 23:37:00,
2013-04-29 19:39:00,64.4,57.0,30.04,WSW,246,0.0,9.0,77,0.00,,,0.00,Wunderground v.1.15,2013-04-29 23:39:00,
2013-04-29 19:41:00,64.3,56.9,30.04,WSW,246,0.0,9.0,77,0.00,,,0.00,Wunderground v.1.15,2013-04-29 23:41:00,
2013-04-29 19:42:00,64.3,56.9,30.04,WSW,246,0.0,9.0,77,0.00,,,0.00,Wunderground v.1.15,2013-04-29 23:42:00,
2013-04-29 19:43:00,64.3,56.6,30.04,WSW,246,0.0,9.0,76,0.00,,,0.00,Wunderground v.1.15,2013-04-29 23:43:00,
2013-04-29 19:45:00,64.3,56.6,30.04,WSW,246,0.0,9.0,76,0.00,,,0.00,Wunderground v.1.15,2013-04-29 23:45:00,
2013-04-29 19:47:00,64.2,56.5,30.04,WSW,246,0.0,9.0,76,0.00,,,0.00,Wunderground v.1.15,2013-04-29 23:47:00,
2013-04-29 19:49:00,64.1,56.4,30.04,WSW,246,0.0,9.0,76,0.00,,,0.00,Wunderground v.1.15,2013-04-29 23:49:00,
2013-04-29 19:50:00,64.0,56.3,30.04,WSW,246,0.0,9.0,76,0.00,,,0.00,Wunderground v.1.15,2013-04-29 23:50:00,
2013-04-29 19:51:00,63.9,56.2,30.04,WSW,246,0.0,9.0,76,0.00,,,0.00,Wunderground v.1.15,2013-04-29 23:51:00,
2013-04-29 19:55:00,63.5,56.2,30.04,WSW,246,0.0,9.0,77,0.00,,,0.00,Wunderground v.1.15,2013-04-29 23:55:00,
2013-04-29 19:56:00,63.5,56.5,30.04,WSW,246,0.0,9.0,78,0.00,,,0.00,Wunderground v.1.15,2013-04-29 23:56:00,
2013-04-29 19:57:00,63.4,56.4,30.04,WSW,246,0.0,9.0,78,0.00,,,0.00,Wunderground v.1.15,2013-04-29 23:57:00,
2013-04-29 19:59:00,63.2,56.2,30.04,WSW,246,0.0,9.0,78,0.00,,,0.00,Wunderground v.1.15,2013-04-29 23:59:00,
2013-04-29 20:03:00,62.9,55.9,30.04,WSW,246,0.0,9.0,78,0.00,,,0.00,Wunderground v.1.15,2013-04-30 00:03:00,
2013-04-29 20:05:00,62.7,55.7,30.04,WSW,246,0.0,9.0,78,0.00,,,0.00,Wunderground v.1.15,2013-04-30 00:05:00,
2013-04-29 20:06:00,62.6,55.6,30.04,WSW,246,0.0,9.0,78,0.00,,,0.00,Wunderground v.1.15,2013-04-30 00:06:00,
2013-04-29 20:09:00,62.3,55.7,30.04,WSW,246,0.0,9.0,79,0.00,,,0.00,Wunderground v.1.15,2013-04-30 00:09:00,
2013-04-29 20:11:00,62.1,55.5,30.04,WSW,246,0.0,9.0,79,0.00,,,0.00,Wunderground v.1.15,2013-04-30 00:11:00,
2013-04-29 20:13:00,61.9,55.3,30.04,WSW,246,0.0,9.0,79,0.00,,,0.00,Wunderground v.1.15,2013-04-30 00:13:00,
2013-04-29 20:14:00,61.8,55.2,30.04,WSW,246,0.0,9.0,79,0.00,,,0.00,Wunderground v.1.15,2013-04-30 00:14:00,
2013-04-29 20:15:00,61.7,55.5,30.05,WSW,246,0.0,9.0,80,0.00,,,0.00,Wunderground v.1.15,2013-04-30 00:15:00,
2013-04-29 20:16:00,61.6,55.4,30.05,WSW,246,0.0,9.0,80,0.00,,,0.00,Wunderground v.1.15,2013-04-30 00:16:00,
2013-04-29 20:18:00,61.4,55.2,30.05,WSW,246,0.0,9.0,80,0.00,,,0.00,Wunderground v.1.15,2013-04-30 00:18:00,
2013-04-29 20:20:00,61.3,55.4,30.05,WSW,246,0.0,9.0,81,0.00,,,0.00,Wunderground v.1.15,2013-04-30 00:20:00,
2013-04-29 20:22:00,61.1,55.2,30.05,WSW,246,0.0,9.0,81,0.00,,,0.00,Wunderground v.1.15,2013-04-30 00:22:00,
2013-04-29 20:24:00,60.9,55.0,30.05,WSW,246,0.0,9.0,81,0.00,,,0.00,Wunderground v.1.15,2013-04-30 00:24:00,
2013-04-29 20:27:00,60.7,55.2,30.05,WSW,246,0.0,9.0,82,0.00,,,0.00,Wunderground v.1.15,2013-04-30 00:27:00,
2013-04-29 20:28:00,60.6,55.1,30.05,WSW,246,0.0,9.0,82,0.00,,,0.00,Wunderground v.1.15,2013-04-30 00:28:00,
2013-04-29 20:29:00,60.6,55.1,30.05,WSW,246,0.0,9.0,82,0.00,,,0.00,Wunderground v.1.15,2013-04-30 00:29:00,
2013-04-29 20:32:00,60.4,55.2,30.05,WSW,246,0.0,9.0,83,0.00,,,0.00,Wunderground v.1.15,2013-04-30 00:32:00,
2013-04-29 20:34:00,60.3,55.1,30.05,WSW,246,0.0,9.0,83,0.00,,,0.00,Wunderground v.1.15,2013-04-30 00:34:00,
2013-04-29 20:36:00,60.1,54.9,30.05,WSW,246,0.0,9.0,83,0.00,,,0.00,Wunderground v.1.15,2013-04-30 00:36:00,
2013-04-29 20:40:00,59.9,55.1,30.05,WSW,246,0.0,9.0,84,0.00,,,0.00,Wunderground v.1.15,2013-04-30 00:40:00,
2013-04-29 20:42:00,59.8,55.0,30.05,WSW,246,0.0,9.0,84,0.00,,,0.00,Wunderground v.1.15,2013-04-30 00:42:00,
2013-04-29 20:43:00,59.8,55.0,30.05,WSW,246,0.0,9.0,84,0.00,,,0.00,Wunderground v.1.15,2013-04-30 00:43:00,
2013-04-29 20:46:00,59.6,54.8,30.05,WSW,246,0.0,9.0,84,0.00,,,0.00,Wunderground v.1.15,2013-04-30 00:46:00,
2013-04-29 20:47:00,59.6,54.8,30.05,WSW,246,0.0,9.0,84,0.00,,,0.00,Wunderground v.1.15,2013-04-30 00:47:00,
2013-04-29 20:48:00,59.5,54.7,30.05,WSW,246,0.0,9.0,84,0.00,,,0.00,Wunderground v.1.15,2013-04-30 00:48:00,
2013-04-29 20:49:00,59.5,54.7,30.05,WSW,246,0.0,9.0,84,0.00,,,0.00,Wunderground v.1.15,2013-04-30 00:49:00,
2013-04-29 20:52:00,59.4,54.9,30.05,WSW,246,0.0,9.0,85,0.00,,,0.00,Wunderground v.1.15,2013-04-30 00:52:00,
2013-04-29 20:55:00,59.3,54.8,30.05,WSW,246,0.0,9.0,85,0.00,,,0.00,Wunderground v.1.15,2013-04-30 00:55:00,
2013-04-29 20:57:00,59.2,54.7,30.05,WSW,246,0.0,9.0,85,0.00,,,0.00,Wunderground v.1.15,2013-04-30 00:57:00,
2013-04-29 20:58:00,59.1,54.6,30.05,WSW,246,0.0,9.0,85,0.00,,,0.00,Wunderground v.1.15,2013-04-30 00:58:00,
2013-04-29 21:01:00,59.1,54.6,30.05,WSW,246,0.0,9.0,85,0.00,,,0.00,Wunderground v.1.15,2013-04-30 01:01:00,
2013-04-29 21:02:00,59.0,54.5,30.05,WSW,246,0.0,9.0,85,0.00,,,0.00,Wunderground v.1.15,2013-04-30 01:02:00,
2013-04-29 21:03:00,58.9,54.7,30.05,WSW,246,0.0,9.0,86,0.00,,,0.00,Wunderground v.1.15,2013-04-30 01:03:00,
2013-04-29 21:06:00,58.9,54.7,30.05,WSW,246,0.0,9.0,86,0.00,,,0.00,Wunderground v.1.15,2013-04-30 01:06:00,
2013-04-29 21:09:00,58.7,54.5,30.05,WSW,246,0.0,9.0,86,0.00,,,0.00,Wunderground v.1.15,2013-04-30 01:09:00,
2013-04-29 21:10:00,58.7,54.5,30.05,WSW,246,0.0,9.0,86,0.00,,,0.00,Wunderground v.1.15,2013-04-30 01:10:00,
2013-04-29 21:15:00,58.5,54.3,30.05,WSW,246,0.0,9.0,86,0.00,,,0.00,Wunderground v.1.15,2013-04-30 01:15:00,
2013-04-29 21:16:00,58.5,54.3,30.05,WSW,246,0.0,9.0,86,0.00,,,0.00,Wunderground v.1.15,2013-04-30 01:16:00,
2013-04-29 21:17:00,58.5,54.3,30.06,WSW,246,0.0,9.0,86,0.00,,,0.00,Wunderground v.1.15,2013-04-30 01:17:00,
2013-04-29 21:19:00,58.4,54.5,30.06,WSW,246,0.0,9.0,87,0.00,,,0.00,Wunderground v.1.15,2013-04-30 01:19:00,
2013-04-29 21:23:00,58.3,54.4,30.05,WSW,246,0.0,9.0,87,0.00,,,0.00,Wunderground v.1.15,2013-04-30 01:23:00,
2013-04-29 21:24:00,58.3,54.4,30.05,WSW,246,0.0,9.0,87,0.00,,,0.00,Wunderground v.1.15,2013-04-30 01:24:00,
2013-04-29 21:25:00,58.3,54.4,30.05,WSW,246,0.0,9.0,87,0.00,,,0.00,Wunderground v.1.15,2013-04-30 01:25:00,
2013-04-29 21:26:00,58.3,54.4,30.05,WSW,246,0.0,9.0,87,0.00,,,0.00,Wunderground v.1.15,2013-04-30 01:26:00,
2013-04-29 21:29:00,58.2,54.3,30.06,WSW,246,0.0,9.0,87,0.00,,,0.00,Wunderground v.1.15,2013-04-30 01:29:00,
2013-04-29 21:30:00,58.2,54.3,30.06,WSW,246,0.0,9.0,87,0.00,,,0.00,Wunderground v.1.15,2013-04-30 01:30:00,
2013-04-29 21:35:00,58.0,54.2,30.06,WSW,246,0.0,9.0,87,0.00,,,0.00,Wunderground v.1.15,2013-04-30 01:35:00,
2013-04-29 21:37:00,58.0,54.2,30.06,WSW,246,0.0,9.0,87,0.00,,,0.00,Wunderground v.1.15,2013-04-30 01:37:00,
2013-04-29 21:38:00,57.9,54.1,30.06,WSW,246,0.0,9.0,87,0.00,,,0.00,Wunderground v.1.15,2013-04-30 01:38:00,
2013-04-29 21:40:00,57.8,54.0,30.06,WSW,246,0.0,9.0,87,0.00,,,0.00,Wunderground v.1.15,2013-04-30 01:40:00,
2013-04-29 21:42:00,57.8,54.0,30.06,WSW,246,0.0,9.0,87,0.00,,,0.00,Wunderground v.1.15,2013-04-30 01:42:00,
2013-04-29 21:44:00,57.7,53.9,30.06,WSW,246,0.0,9.0,87,0.00,,,0.00,Wunderground v.1.15,2013-04-30 01:44:00,
2013-04-29 21:47:00,57.7,53.9,30.06,WSW,246,0.0,9.0,87,0.00,,,0.00,Wunderground v.1.15,2013-04-30 01:47:00,
2013-04-29 21:48:00,57.7,53.9,30.06,WSW,246,0.0,9.0,87,0.00,,,0.00,Wunderground v.1.15,2013-04-30 01:48:00,
2013-04-29 21:50:00,57.6,53.8,30.06,WSW,246,0.0,9.0,87,0.00,,,0.00,Wunderground v.1.15,2013-04-30 01:50:00,
2013-04-29 21:51:00,57.6,53.8,30.06,WSW,246,0.0,9.0,87,0.00,,,0.00,Wunderground v.1.15,2013-04-30 01:51:00,
2013-04-29 21:55:00,57.5,54.0,30.06,WSW,246,0.0,9.0,88,0.00,,,0.00,Wunderground v.1.15,2013-04-30 01:55:00,
2013-04-29 21:56:00,57.5,54.0,30.06,WSW,246,0.0,9.0,88,0.00,,,0.00,Wunderground v.1.15,2013-04-30 01:56:00,
2013-04-29 21:58:00,57.4,53.9,30.06,WSW,246,0.0,9.0,88,0.00,,,0.00,Wunderground v.1.15,2013-04-30 01:58:00,
2013-04-29 22:01:00,57.4,53.9,30.06,WSW,246,0.0,9.0,88,0.00,,,0.00,Wunderground v.1.15,2013-04-30 02:01:00,
2013-04-29 22:02:00,57.3,53.8,30.06,WSW,246,0.0,9.0,88,0.00,,,0.00,Wunderground v.1.15,2013-04-30 02:02:00,
2013-04-29 22:03:00,57.3,53.8,30.06,WSW,246,0.0,9.0,88,0.00,,,0.00,Wunderground v.1.15,2013-04-30 02:03:00,
2013-04-29 22:05:00,57.3,53.8,30.06,WSW,246,0.0,9.0,88,0.00,,,0.00,Wunderground v.1.15,2013-04-30 02:05:00,
2013-04-29 22:07:00,57.3,53.8,30.06,WSW,246,0.0,9.0,88,0.00,,,0.00,Wunderground v.1.15,2013-04-30 02:07:00,
2013-04-29 22:08:00,57.2,53.7,30.06,WSW,246,0.0,9.0,88,0.00,,,0.00,Wunderground v.1.15,2013-04-30 02:08:00,
2013-04-29 22:12:00,57.1,53.6,30.06,WSW,246,0.0,9.0,88,0.00,,,0.00,Wunderground v.1.15,2013-04-30 02:12:00,
2013-04-29 22:13:00,57.1,53.6,30.06,WSW,246,0.0,9.0,88,0.00,,,0.00,Wunderground v.1.15,2013-04-30 02:13:00,
2013-04-29 22:14:00,57.0,53.5,30.06,WSW,246,0.0,9.0,88,0.00,,,0.00,Wunderground v.1.15,2013-04-30 02:14:00,
2013-04-29 22:16:00,57.0,53.5,30.06,WSW,246,0.0,9.0,88,0.00,,,0.00,Wunderground v.1.15,2013-04-30 02:16:00,
2013-04-29 22:19:00,56.9,53.4,30.06,WSW,246,0.0,9.0,88,0.00,,,0.00,Wunderground v.1.15,2013-04-30 02:19:00,
2013-04-29 22:22:00,56.9,53.7,30.06,WSW,246,0.0,9.0,89,0.00,,,0.00,Wunderground v.1.15,2013-04-30 02:22:00,
2013-04-29 22:24:00,56.8,53.6,30.06,WSW,246,0.0,9.0,89,0.00,,,0.00,Wunderground v.1.15,2013-04-30 02:24:00,
2013-04-29 22:27:00,56.7,53.5,30.07,WSW,246,0.0,9.0,89,0.00,,,0.00,Wunderground v.1.15,2013-04-30 02:27:00,
2013-04-29 22:28:00,56.7,53.5,30.06,WSW,246,0.0,9.0,89,0.00,,,0.00,Wunderground v.1.15,2013-04-30 02:28:00,
2013-04-29 22:29:00,56.7,53.5,30.07,WSW,246,0.0,9.0,89,0.00,,,0.00,Wunderground v.1.15,2013-04-30 02:29:00,
2013-04-29 22:32:00,56.6,53.4,30.07,WSW,246,0.0,9.0,89,0.00,,,0.00,Wunderground v.1.15,2013-04-30 02:32:00,
2013-04-29 22:34:00,56.6,53.7,30.07,WSW,246,0.0,9.0,90,0.00,,,0.00,Wunderground v.1.15,2013-04-30 02:34:00,
2013-04-29 22:38:00,56.5,53.6,30.07,WSW,246,0.0,9.0,90,0.00,,,0.00,Wunderground v.1.15,2013-04-30 02:38:00,
2013-04-29 22:39:00,56.5,53.6,30.07,WSW,246,0.0,9.0,90,0.00,,,0.00,Wunderground v.1.15,2013-04-30 02:39:00,
2013-04-29 22:41:00,56.4,53.5,30.07,WSW,246,0.0,9.0,90,0.00,,,0.00,Wunderground v.1.15,2013-04-30 02:41:00,
2013-04-29 22:43:00,56.4,53.5,30.07,WSW,246,0.0,9.0,90,0.00,,,0.00,Wunderground v.1.15,2013-04-30 02:43:00,
2013-04-29 22:46:00,56.3,53.4,30.07,WSW,246,0.0,9.0,90,0.00,,,0.00,Wunderground v.1.15,2013-04-30 02:46:00,
2013-04-29 22:47:00,56.2,53.3,30.07,WSW,246,0.0,9.0,90,0.00,,,0.00,Wunderground v.1.15,2013-04-30 02:47:00,
2013-04-29 22:50:00,56.1,53.5,30.06,WSW,246,0.0,9.0,91,0.00,,,0.00,Wunderground v.1.15,2013-04-30 02:50:00,
2013-04-29 22:51:00,56.1,53.5,30.06,WSW,246,0.0,9.0,91,0.00,,,0.00,Wunderground v.1.15,2013-04-30 02:51:00,
2013-04-29 22:52:00,56.0,53.4,30.06,WSW,246,0.0,9.0,91,0.00,,,0.00,Wunderground v.1.15,2013-04-30 02:52:00,
2013-04-29 22:54:00,56.0,53.4,30.06,WSW,246,0.0,9.0,91,0.00,,,0.00,Wunderground v.1.15,2013-04-30 02:54:00,
2013-04-29 22:55:00,56.0,53.4,30.06,WSW,246,0.0,9.0,91,0.00,,,0.00,Wunderground v.1.15,2013-04-30 02:55:00,
2013-04-29 22:56:00,55.9,53.3,30.06,WSW,246,0.0,9.0,91,0.00,,,0.00,Wunderground v.1.15,2013-04-30 02:56:00,
2013-04-29 22:57:00,56.0,53.4,30.06,WSW,246,0.0,9.0,91,0.00,,,0.00,Wunderground v.1.15,2013-04-30 02:57:00,
2013-04-29 23:01:00,55.9,53.3,30.07,WSW,246,0.0,9.0,91,0.00,,,0.00,Wunderground v.1.15,2013-04-30 03:01:00,
2013-04-29 23:03:00,55.8,53.2,30.07,WSW,246,0.0,9.0,91,0.00,,,0.00,Wunderground v.1.15,2013-04-30 03:03:00,
2013-04-29 23:04:00,55.8,53.2,30.07,WSW,246,0.0,9.0,91,0.00,,,0.00,Wunderground v.1.15,2013-04-30 03:04:00,
2013-04-29 23:06:00,55.7,53.1,30.07,WSW,246,0.0,9.0,91,0.00,,,0.00,Wunderground v.1.15,2013-04-30 03:06:00,
2013-04-29 23:09:00,55.6,53.0,30.07,WSW,246,0.0,9.0,91,0.00,,,0.00,Wunderground v.1.15,2013-04-30 03:09:00,
2013-04-29 23:11:00,55.5,52.9,30.07,WSW,246,0.0,9.0,91,0.00,,,0.00,Wunderground v.1.15,2013-04-30 03:11:00,
2013-04-29 23:12:00,55.5,52.9,30.07,WSW,246,0.0,9.0,91,0.00,,,0.00,Wunderground v.1.15,2013-04-30 03:12:00,
2013-04-29 23:13:00,55.5,52.9,30.07,WSW,246,0.0,9.0,91,0.00,,,0.00,Wunderground v.1.15,2013-04-30 03:13:00,
2013-04-29 23:15:00,55.4,53.1,30.07,WSW,246,0.0,9.0,92,0.00,,,0.00,Wunderground v.1.15,2013-04-30 03:15:00,
2013-04-29 23:17:00,55.4,53.1,30.07,WSW,246,0.0,9.0,92,0.00,,,0.00,Wunderground v.1.15,2013-04-30 03:17:00,
2013-04-29 23:19:00,55.4,53.1,30.07,WSW,246,0.0,9.0,92,0.00,,,0.00,Wunderground v.1.15,2013-04-30 03:19:00,
2013-04-29 23:20:00,55.3,53.0,30.07,WSW,246,0.0,9.0,92,0.00,,,0.00,Wunderground v.1.15,2013-04-30 03:20:00,
2013-04-29 23:21:00,55.4,53.1,30.07,WSW,246,0.0,9.0,92,0.00,,,0.00,Wunderground v.1.15,2013-04-30 03:21:00,
2013-04-29 23:23:00,55.3,53.0,30.07,WSW,246,0.0,9.0,92,0.00,,,0.00,Wunderground v.1.15,2013-04-30 03:23:00,
2013-04-29 23:25:00,55.3,53.0,30.07,WSW,246,0.0,9.0,92,0.00,,,0.00,Wunderground v.1.15,2013-04-30 03:25:00,
2013-04-29 23:26:00,55.4,53.1,30.07,WSW,246,0.0,9.0,92,0.00,,,0.00,Wunderground v.1.15,2013-04-30 03:26:00,
2013-04-29 23:27:00,55.3,53.3,30.07,WSW,246,0.0,9.0,93,0.00,,,0.00,Wunderground v.1.15,2013-04-30 03:27:00,
2013-04-29 23:31:00,55.4,53.1,30.06,WSW,246,0.0,9.0,92,0.00,,,0.00,Wunderground v.1.15,2013-04-30 03:31:00,
2013-04-29 23:32:00,55.3,53.0,30.06,WSW,246,0.0,9.0,92,0.00,,,0.00,Wunderground v.1.15,2013-04-30 03:32:00,
2013-04-29 23:33:00,55.3,53.3,30.06,WSW,246,0.0,9.0,93,0.00,,,0.00,Wunderground v.1.15,2013-04-30 03:33:00,
2013-04-29 23:35:00,55.4,53.4,30.06,WSW,246,0.0,9.0,93,0.00,,,0.00,Wunderground v.1.15,2013-04-30 03:35:00,
2013-04-29 23:38:00,55.3,53.3,30.06,WSW,246,0.0,9.0,93,0.00,,,0.00,Wunderground v.1.15,2013-04-30 03:38:00,
2013-04-29 23:40:00,55.4,53.4,30.06,WSW,246,0.0,9.0,93,0.00,,,0.00,Wunderground v.1.15,2013-04-30 03:40:00,
2013-04-29 23:43:00,55.3,53.3,30.06,WSW,246,0.0,9.0,93,0.00,,,0.00,Wunderground v.1.15,2013-04-30 03:43:00,
2013-04-29 23:46:00,55.3,53.3,30.06,WSW,246,0.0,9.0,93,0.00,,,0.00,Wunderground v.1.15,2013-04-30 03:46:00,
2013-04-29 23:49:00,55.2,53.2,30.06,WSW,246,0.0,9.0,93,0.00,,,0.00,Wunderground v.1.15,2013-04-30 03:49:00,
2013-04-29 23:50:00,55.2,53.2,30.06,WSW,246,0.0,9.0,93,0.00,,,0.00,Wunderground v.1.15,2013-04-30 03:50:00,
2013-04-29 23:51:00,55.2,53.2,30.06,WSW,246,0.0,9.0,93,0.00,,,0.00,Wunderground v.1.15,2013-04-30 03:51:00,
2013-04-29 23:54:00,55.1,53.1,30.06,WSW,246,0.0,9.0,93,0.00,,,0.00,Wunderground v.1.15,2013-04-30 03:54:00,
2013-04-29 23:56:00,55.1,53.1,30.06,WSW,246,0.0,9.0,93,0.00,,,0.00,Wunderground v.1.15,2013-04-30 03:56:00,
2013-04-29 23:59:00,55.1,53.1,30.06,WSW,246,0.0,9.0,93,0.00,,,0.00,Wunderground v.1.15,2013-04-30 03:59:00,